{"data":{"norad_id":63498,"intl_designator":"2025-071F","name":"STARLINK-33833","alt_names":[],"object_type":"PAYLOAD","status":"ACTIVE","operator":null,"country":"US","launch_date":"2025-04-07","launch_site_code":"AFWTR","launch_vehicle":null,"mission":null,"orbit_class":"UNKNOWN","rcs_meters":null,"size_class":null,"mass_kg":null,"dimensions":null,"purposes":["comms"],"wikipedia_slug":null,"has_3d_model":false,"image_url":null,"decayed_at":null,"tle_current":{"epoch":"2026-05-25T03:26:35.266272Z","epoch_age_seconds":52920,"freshness":"FRESH","line1":"1 63498U 25071F   26145.14346373  .00015849  00000+0  54611-3 0  9990","line2":"2 63498  53.1579 144.9196 0001179 104.1110 256.0022 15.30198674 64474","mean_motion":15.30198674,"eccentricity":0.0001179,"inclination_deg":53.1579,"raan_deg":144.9196,"arg_perigee_deg":104.111,"mean_anomaly_deg":256.0022,"bstar":0.00054611,"rev_number":6447,"period_min":94.105427253821,"perigee_km":474.4110179434,"apogee_km":476.02703929494,"semimajor_km":6853.3560286192,"source":"CELESTRAK","updated_at":"2026-05-25T13:38:20.012556Z"}}}